GW3695 Weather Reports


time (UTC)temp
C
wind
direction
speed
KPH
gust
KPH
rain 1hr
cm
rain 24hr
cm
rain mn
cm
humidity
%
barometer
mb
20260504151012 -17 0.0 0.0 0.00 0.00 0.00 1014.3
20260504150512 -17 0.0 0.0 0.00 0.00 0.00 1014.5
20260504141002 -17 0.0 0.0 0.00 0.00 0.00 1014.5
20260504140501 -17 0.0 0.0 0.00 0.00 0.00 1014.5
20260504130501 -17 0.0 0.0 0.00 0.00 0.00 1015.0
20260504110501 -17 0.0 0.0 0.00 0.00 0.00 1015.4
20260504100507 -17 0.0 0.0 0.00 0.00 0.00 1015.3
20260504081002 10 206 0.0 0.0 0.00 0.00 0.00 54 1015.6
20260504080504 10 206 0.0 0.0 0.00 0.00 0.00 53 1015.6
20260504050503 6 206 0.0 0.0 0.00 0.00 0.00 66 1016.3
20260504050006 6 206 0.0 0.0 0.00 0.00 0.00 66 1016.3
20260504045504 6 205 0.0 0.0 0.00 0.00 0.00 67 1016.2
20260504045004 6 206 0.0 0.0 0.00 0.00 0.00 66 1016.3
20260504042505 6 206 0.0 0.0 0.00 0.00 0.00 65 1016.1
20260504042004 6 206 0.0 0.0 0.00 0.00 0.00 65 1016.1
20260504041508 6 206 0.0 0.0 0.00 0.00 0.00 64 1016.2
20260504041004 6 206 0.0 0.0 0.00 0.00 0.00 64 1016.2
20260504040504 6 206 0.0 0.0 0.00 0.00 0.00 63 1016.1
20260504040010 6 206 0.0 0.0 0.00 0.00 0.00 62 1016.0
20260504035504 6 206 0.0 0.0 0.00 0.00 0.00 63 1016.1
20260504035005 6 206 0.0 0.0 0.00 0.00 0.00 62 1016.2
20260504034512 7 206 0.0 0.0 0.00 0.00 0.00 65 1016.3
20260504034004 7 206 0.0 0.0 0.00 0.00 0.00 66 1016.3
20260504033504 6 206 0.0 0.0 0.00 0.00 0.00 66 1016.3
20260504033020 6 205 0.0 0.0 0.00 0.00 0.00 68 1016.2
20260504032505 6 206 0.0 0.0 0.00 0.00 0.00 68 1016.1
20260504032005 6 206 0.0 0.0 0.00 0.00 0.00 69 1016.1
20260504031509 7 206 0.0 0.0 0.00 0.00 0.00 69 1016.1
20260504031005 7 206 0.0 0.0 0.00 0.00 0.00 69 1015.9
20260504030507 7 206 0.0 0.0 0.00 0.00 0.00 68 1015.9
20260504030008 7 206 0.0 0.0 0.00 0.00 0.00 68 1016.0
20260504025504 7 206 0.0 0.0 0.00 0.00 0.00 67 1016.1
20260504025007 7 206 0.0 0.0 0.00 0.00 0.00 67 1015.9
20260504024525 7 206 0.0 0.0 0.00 0.00 0.00 65 1015.9
20260504024007 7 206 0.0 0.0 0.00 0.00 0.00 64 1015.8
20260504023504 7 206 0.0 0.0 0.00 0.00 0.00 62 1015.7
20260504023008 7 206 0.0 0.0 0.00 0.00 0.00 62 1015.7
20260504022505 7 206 0.0 0.0 0.00 0.00 0.00 61 1015.7
20260504022007 8 206 0.0 0.0 0.00 0.00 0.00 60 1015.6
20260504021511 8 206 0.0 0.0 0.00 0.00 0.00 58 1015.6
20260504021002 8 206 0.0 0.0 0.00 0.00 0.00 58 1015.5
20260504020502 8 206 0.0 0.0 0.00 0.00 0.00 58 1015.5
20260504020004 8 206 0.0 0.0 0.00 0.00 0.00 58 1015.5
20260504015503 8 206 0.0 0.0 0.00 0.00 0.00 56 1015.4
20260504015003 8 206 0.0 0.0 0.00 0.00 0.00 56 1015.4
20260504014506 9 206 0.0 0.0 0.00 0.00 0.00 55 1015.3
20260504014003 9 206 0.0 0.0 0.00 0.00 0.00 55 1015.3
20260504013504 9 206 0.0 0.0 0.00 0.00 0.00 53 1015.3
20260504013004 9 205 0.0 0.0 0.00 0.00 0.00 53 1015.3
20260504012504 10 206 0.0 0.0 0.00 0.00 0.00 52 1015.2
20260504012005 10 206 0.0 0.0 0.00 0.00 0.00 51 1015.3
20260504011508 10 206 0.0 0.0 0.00 0.00 0.00 50 1015.2
20260504011006 10 206 0.0 0.0 0.00 0.00 0.00 48 1015.2
20260504010505 11 206 0.0 0.0 0.00 0.00 0.00 47 1015.2
20260504010014 11 206 0.0 0.0 0.00 0.00 0.00 45 1015.3
20260504005507 11 206 0.0 0.0 0.00 0.00 0.00 44 1015.2
20260504005002 11 206 0.0 0.0 0.00 0.00 0.00 44 1015.2
20260504004508 12 205 0.0 0.0 0.00 0.00 0.00 42 1015.1
20260504004003 12 206 0.0 0.0 0.00 0.00 0.00 41 1015.1
20260504003505 12 206 0.0 0.0 0.00 0.00 0.00 40 1015.0
20260504003004 13 206 0.0 0.0 0.00 0.00 0.00 38 1015.0
20260504002504 13 206 0.0 0.0 0.00 0.00 0.00 37 1015.0
20260504002004 13 206 0.0 1.6 0.00 0.00 0.00 35 1015.0
20260504001506 14 206 0.0 1.6 0.00 0.00 0.00 34 1014.9
20260504001007 14 206 0.0 0.0 0.00 0.00 0.00 34 1014.9
20260504000505 15 206 0.0 1.6 0.00 0.00 0.00 32 1014.8
20260504000010 15 206 0.0 1.6 0.00 0.00 0.00 32 1014.7
20260503235509 15 206 0.0 3.2 0.00 0.00 0.00 32 1014.7
20260503235007 15 206 0.0 4.8 0.00 0.00 0.00 31 1014.6
20260503234513 15 206 0.0 4.8 0.00 0.00 0.00 31 1014.5
20260503234005 15 206 0.0 6.4 0.00 0.00 0.00 30 1014.5
20260503233509 16 206 1.6 6.4 0.00 0.00 0.00 29 1014.5
20260503233004 16 206 1.6 6.4 0.00 0.00 0.00 29 1014.5
20260503232503 16 206 1.6 6.4 0.00 0.00 0.00 29 1014.5
20260503232002 16 206 0.0 4.8 0.00 0.00 0.00 28 1014.4
20260503231505 16 206 0.0 9.7 0.00 0.00 0.00 28 1014.2
20260503231005 16 206 1.6 9.7 0.00 0.00 0.00 28 1014.2
20260503230502 16 206 0.0 4.8 0.00 0.00 0.00 29 1014.1
20260503230009 17 206 1.6 9.7 0.00 0.00 0.00 29 1014.1
20260503225505 17 206 0.0 9.7 0.00 0.00 0.00 28 1014.2
20260503225008 17 206 0.0 11.3 0.00 0.00 0.00 27 1014.2
20260503224512 17 206 3.2 11.3 0.00 0.00 0.00 26 1014.3
20260503224008 17 206 1.6 8.0 0.00 0.00 0.00 27 1014.2
20260503223507 17 206 1.6 8.0 0.00 0.00 0.00 27 1014.3
20260503223015 17 206 1.6 16.1 0.00 0.00 0.00 27 1014.3
20260503222507 17 205 3.2 16.1 0.00 0.00 0.00 26 1014.4
20260503222010 17 206 1.6 11.3 0.00 0.00 0.00 27 1014.3
20260503221520 17 205 3.2 11.3 0.00 0.00 0.00 26 1014.4
20260503221004 18 206 3.2 11.3 0.00 0.00 0.00 26 1014.4
20260503220504 18 206 0.0 4.8 0.00 0.00 0.00 26 1014.3
20260503220008 18 206 0.0 6.4 0.00 0.00 0.00 26 1014.4
20260503215504 17 206 1.6 8.0 0.00 0.00 0.00 27 1014.4
20260503215005 17 205 1.6 9.7 0.00 0.00 0.00 26 1014.4
20260503214510 18 206 3.2 11.3 0.00 0.00 0.00 26 1014.4
20260503214006 17 205 1.6 11.3 0.00 0.00 0.00 26 1014.4
20260503213504 18 206 4.8 11.3 0.00 0.00 0.00 26 1014.5
20260503213018 18 205 1.6 6.4 0.00 0.00 0.00 26 1014.5
20260503212505 18 206 1.6 6.4 0.00 0.00 0.00 25 1014.5
20260503212009 18 205 1.6 8.0 0.00 0.00 0.00 26 1014.4
20260503211529 18 205 3.2 11.3 0.00 0.00 0.00 26 1014.4
20260503211007 18 205 1.6 11.3 0.00 0.00 0.00 26 1014.4
20260503210507 18 206 1.6 9.7 0.00 0.00 0.00 26 1014.4
20260503210022 18 206 1.6 9.7 0.00 0.00 0.00 26 1014.4
20260503205504 18 206 1.6 9.7 0.00 0.00 0.00 25 1014.5
20260503205004 18 206 3.2 9.7 0.00 0.00 0.00 26 1014.6
20260503204509 18 206 1.6 8.0 0.00 0.00 0.00 27 1014.8
20260503204003 18 205 1.6 8.0 0.00 0.00 0.00 27 1014.8
20260503203506 18 206 1.6 4.8 0.00 0.00 0.00 26 1014.9
20260503203012 18 205 1.6 8.0 0.00 0.00 0.00 27 1014.8
20260503202502 17 206 0.0 17.7 0.00 0.00 0.00 27 1015.0
20260503202003 17 206 4.8 17.7 0.00 0.00 0.00 27 1015.1
20260503201503 17 206 4.8 14.5 0.00 0.00 0.00 26 1015.1
20260503201003 17 205 0.0 8.0 0.00 0.00 0.00 29 1015.1
20260503200503 17 206 1.6 9.7 0.00 0.00 0.00 28 1015.2
20260503200004 17 206 3.2 14.5 0.00 0.00 0.00 28 1015.3
20260503195507 17 206 4.8 14.5 0.00 0.00 0.00 28 1015.4
20260503195005 17 206 4.8 12.9 0.00 0.00 0.00 29 1015.3
20260503194506 17 206 0.0 11.3 0.00 0.00 0.00 29 1015.4
20260503194004 17 205 3.2 11.3 0.00 0.00 0.00 30 1015.6
20260503193509 17 206 1.6 6.4 0.00 0.00 0.00 28 1015.6
20260503193028 17 206 1.6 12.9 0.00 0.00 0.00 29 1015.7
20260503192504 17 205 1.6 12.9 0.00 0.00 0.00 30 1015.9
20260503192002 17 205 1.6 9.7 0.00 0.00 0.00 30 1015.9
20260503191503 16 205 1.6 9.7 0.00 0.00 0.00 30 1016.0
20260503191003 16 205 1.6 14.5 0.00 0.00 0.00 31 1016.0
20260503190502 16 206 4.8 16.1 0.00 0.00 0.00 30 1016.1
20260503190004 16 205 3.2 16.1 0.00 0.00 0.00 30 1016.1
20260503185503 16 205 4.8 12.9 0.00 0.00 0.00 31 1016.2
20260503185003 16 205 3.2 11.3 0.00 0.00 0.00 31 1016.2
20260503184505 16 206 3.2 11.3 0.00 0.00 0.00 30 1016.2
20260503184004 16 206 1.6 17.7 0.00 0.00 0.00 32 1016.3
20260503183505 15 206 0.0 17.7 0.00 0.00 0.00 34 1016.3
20260503183006 16 206 6.4 16.1 0.00 0.00 0.00 30 1016.6
20260503182505 16 206 1.6 8.0 0.00 0.00 0.00 34 1016.5
20260503182008 15 206 1.6 12.9 0.00 0.00 0.00 35 1016.6
20260503181512 15 206 3.2 12.9 0.00 0.00 0.00 34 1016.5
20260503181007 15 206 1.6 9.7 0.00 0.00 0.00 35 1016.6
20260503180506 15 206 1.6 16.1 0.00 0.00 0.00 35 1016.5
20260503180003 14 206 1.6 16.1 0.00 0.00 0.00 35 1016.6
20260503175502 15 206 3.2 14.5 0.00 0.00 0.00 35 1016.7
20260503175003 15 206 1.6 9.7 0.00 0.00 0.00 35 1016.8
20260503174504 14 206 0.0 17.7 0.00 0.00 0.00 35 1016.8
20260503174003 14 206 3.2 17.7 0.00 0.00 0.00 37 1016.9
20260503173507 13 206 3.2 12.9 0.00 0.00 0.00 36 1016.9
20260503173015 13 205 0.0 12.9 0.00 0.00 0.00 36 1016.9
20260503172504 14 206 3.2 12.9 0.00 0.00 0.00 34 1016.9
20260503172004 14 205 3.2 12.9 0.00 0.00 0.00 35 1016.8
20260503171507 13 205 4.8 9.7 0.00 0.00 0.00 34 1017.0
20260503171009 13 206 1.6 14.5 0.00 0.00 0.00 35 1017.0
20260503170503 13 206 6.4 14.5 0.00 0.00 0.00 35 1016.9